Find Starlink 31363

NORAD ID: 59782 Int'l Des: 2024-093 Owner: SPXS Country: US Constellation: starlink operational
LEOCIRCULAR

Current View

Loading 3D Globe...

About Starlink 31363

Starlink 31363 (NORAD 59782) is a starlink constellation satellite (v2 mini) launched May 18, 2024 by SPXS of US. It operates in LEO, CIRCULAR orbit with a mass of 730.00 kg.

Upcoming Passes

Passes for default location (London). Set your location on the main map for personalized predictions.

Altitude History

Loading altitude history...

Two-Line Element Set

1 59782U 24093A 26236.54774830 .00000744 00000-0 36578-4 0 9994
2 59782 43.0046 337.7194 0001532 283.4482 76.6199 15.27575388128400
Epoch: Aug 24, 2026 • Age: 15 hours

Current Status

Altitude 486.7 km
Apogee / Perigee N/A
Velocity 7.63 km/s
Sub-Earth Point 40.47°N, 59.27°E
Launch Date May 18, 2024
Age 2.2 years
Type internet

Technical Details

Classification Payload
Mass 730.00 kg
Dry Mass 700.00 kg
Total Mass 730.00 kg
Length 0.30 m
Diameter 4.10 m
Span 29.00 m
Shape Box + pan
Manufacturer SPXS
Bus Type Starlink V2M
Phase Status In Orbit
Owner/State SPXS/US

Most Searched